Content
SEND FEEDBACK

Daily
Averages
Monthly
Summary
United States of America

NEW YORK - CENTRAL PARK, NEW YORK


Home > North America > United States > New York
Elevation: 14 feet     Latitude: 40 47N     Longitude: 073 58W

WEATHER
 
SELECT A DAY
Number of Records: 145,876;   Date Range: 11/1/95 - 4/17/14
 
SHARE

PRINT THIS DATA

[ ← Previous Day ]
WEATHER ALMANAC - JANUARY 27, 2013
[ Next Day → ]
[ °C ]   °F
Weather ElementAverageHighLow
Temperature26.8 °F33.1 °F (2:51 pm)19 °F (3:51 am)
Dewpoint8.5 °F10 °F (5:51 am)6.1 °F (12:51 pm)
Humidity47.5 %68 % (5:51 am)34 % (1:51 pm)
Barometer30.47 in30.52 in (10:51 am)30.40 in (1:51 am)
Wind Speed5.7 mph11.5 mph (7:51 am)
Wind Gust18.4 mph (9:51 am)
Weather ElementAverage
Visibility10 mi
Wind DirectionSSE (150 °)

Weather ElementTotal
Precipitation---
Heating Degree Days39 (Base 65)
Averaged from 23 records on January 27, 2013
WEATHER CONDITIONS BREAKOUT
WIND DIRECTION BREAKOUT
WEATHER BY HOUR - JANUARY 27, 2013
[ °C ]   °F
Local TimeTemperatureDewpointHumidityBarometerVisibilityWind DirectionWind SpeedGust SpeedPrecipitationEventsConditions
1:51 AM19.9 °F7.0 °F57 %30.40 in10.0 miWest (280°)6.9 mphClear
2:51 AM19.9 °F7.0 °F57 %30.40 in10.0 miWNW (300°)9.2 mph16.1 mphClear
3:51 AM19.0 °F8.1 °F62 %30.42 in10.0 miWest (270°)5.8 mphClear
4:51 AM19.0 °F9.0 °F65 %30.42 in10.0 miWest (280°)8.1 mphClear
5:51 AM19.0 °F10.0 °F68 %30.43 in10.0 miVariable4.6 mphClear
6:51 AM19.9 °F10.0 °F65 %30.44 in10.0 miVariable4.6 mph17.3 mphClear
7:51 AM19.9 °F9.0 °F62 %30.46 in10.0 miWNW (290°)11.5 mph17.3 mphClear
8:51 AM21.9 °F10.0 °F60 %30.48 in10.0 miVariable4.6 mphClear
9:51 AM24.1 °F9.0 °F53 %30.50 in10.0 miVariable6.9 mph18.4 mphClear
10:51 AM27.0 °F8.1 °F45 %30.52 in10.0 miVariable5.8 mphClear
11:51 AM28.0 °F7.0 °F41 %30.49 in10.0 miCalmClear
12:51 PM30.9 °F6.1 °F35 %30.47 in10.0 miWNW (300°)4.6 mphClear
1:51 PM32.0 °F6.1 °F34 %30.45 in10.0 miVariable4.6 mphClear
2:51 PM33.1 °F8.1 °F35 %30.45 in10.0 miVariable5.8 mphClear
3:51 PM33.1 °F8.1 °F35 %30.46 in10.0 miWNW (290°)10.4 mphClear
4:51 PM33.1 °F8.1 °F35 %30.48 in10.0 miWest (280°)9.2 mphClear
5:51 PM32.0 °F9.0 °F38 %30.49 in10.0 miWNW (290°)4.6 mphClear
6:51 PM32.0 °F10.0 °F40 %30.50 in10.0 miWNW (290°)3.5 mphClear
7:51 PM32.0 °F9.0 °F38 %30.49 in10.0 miWNW (290°)8.1 mphClear
8:51 PM30.9 °F10.0 °F42 %30.49 in10.0 miWNW (290°)3.5 mphClear
9:51 PM30.9 °F9.0 °F40 %30.50 in10.0 miVariable5.8 mphClear
10:51 PM28.9 °F9.0 °F43 %30.48 in10.0 miVariable3.5 mphClear
11:51 PM28.9 °F9.0 °F43 %30.48 in10.0 miCalmClear
Hourly data recorded from KNYC, located 0.33 miles away from New York - Central Park, New York







STORIES FROM OUR PARTNERS